Weather History for KCON - November, 2013

Change the Weather History Date:

Friday, November 22, 2013

  Actual Average Record
Temperature  
Mean Temperature 34 °F 36 °F  
Max Temperature 38 °F 46 °F 72 °F (1931)
Min Temperature 29 °F 27 °F 5 °F (1972)
Degree Days  
Heating Degree Days 31 29  
Month to date heating degree days 581 556  
Since 1 July heating degree days 1296 1315  
Cooling Degree Days 0 0  
Month to date cooling degree days 0 0  
Year to date cooling degree days 537 452  
Moisture  
Dew Point 34 °F    
Average Humidity 86    
Maximum Humidity 100    
Minimum Humidity 72    
Precipitation  
Precipitation 0.14 in 0.12 in 1.44 in (1991)
Month to date precipitation 0.96 2.77  
Year to date precipitation 35.34 36.46  
Snow  
Snow T in 0.10 in 7.00 in (1872)
Month to date snowfall T 1.2  
Since 1 July snowfall T 1.2  
Since 1 September snowfall T 1.2  
Snow Depth 0.00 in    
Sea Level Pressure  
Sea Level Pressure 30.06 in    
Wind  
Wind Speed 1 mph (WNW)    
Max Wind Speed 6 mph    
Max Gust Speed 6 mph    
Visibility 3 miles    
Events Fog , Rain    
T = Trace of Precipitation, MM = Missing Value Source: NWS Daily Summary

Daily Weather History Graph

Daily Weather History Graph

Search for Another Location

Airport or City:

Trip Planner

Search our weather history database for the weather conditions in past years. The results will help you decide how hot, cold, wet, or windy it might be!

Date:

Astronomy

Nov. 22, 2013 Rise Set
Actual Time 6:47 AM EST 4:16 PM EST
Civil Twilight 6:16 AM EST 4:47 PM EST
Nautical Twilight 5:41 AM EST 5:22 PM EST
Astronomical Twilight 5:07 AM EST 5:56 PM EST
Moon 8:47 PM EST (11/22) 10:27 AM EST (11/22)
Length of Visible Light 10h 30m
Length of Day
9h 28m
Waning Gibbous, 78% of the Moon is Illuminated
Nov 22
Waning Gibbous
Nov 25
Last Quarter
Dec 2
New
Dec 9
First Quarter
Dec 17
Full

Hourly Weather History & Observations

Time (EST) Temp. Windchill Dew Point Humidity Pressure Visibility Wind Dir Wind Speed Gust Speed Precip Events Conditions
12:51 AM 30.9 °F - 23.0 °F 72% 30.34 in 10.0 mi Calm Calm - N/A   Mostly Cloudy
1:51 AM 28.9 °F - 21.9 °F 75% 30.33 in 10.0 mi Calm Calm - N/A   Mostly Cloudy
2:51 AM 30.9 °F - 24.1 °F 76% 30.32 in 10.0 mi Calm Calm - N/A   Overcast
3:51 AM 32.0 °F - 24.1 °F 73% 30.30 in 10.0 mi Calm Calm - N/A   Mostly Cloudy
4:51 AM 30.9 °F - 26.1 °F 82% 30.27 in 10.0 mi Calm Calm - 0.00 in   Mostly Cloudy
5:51 AM 32.0 °F - 27.0 °F 82% 30.27 in 9.0 mi Calm Calm - 0.00 in   Overcast
6:51 AM 32.0 °F - 30.0 °F 92% 30.26 in 8.0 mi Calm Calm - 0.00 in   Overcast
7:51 AM 32.0 °F - 28.9 °F 88% 30.24 in 5.0 mi Calm Calm - 0.02 in   Overcast
8:13 AM 33.1 °F - 30.9 °F 92% 30.21 in 2.0 mi Calm Calm - 0.01 in Rain Light Rain
8:23 AM 33.1 °F - 30.9 °F 92% 30.21 in 5.0 mi Calm Calm - 0.02 in Rain Light Rain
8:51 AM 33.1 °F - 30.9 °F 92% 30.21 in 6.0 mi Calm Calm - 0.03 in Rain Light Rain
9:51 AM 36.0 °F - 34.0 °F 93% 30.18 in 6.0 mi Calm Calm - 0.01 in Rain Light Rain
10:34 AM 36.0 °F 31.1 °F 35.1 °F 97% 30.14 in 3.0 mi SW 5.8 mph - 0.02 in Rain Light Rain
10:37 AM 35.1 °F 31.0 °F 34.0 °F 96% 30.14 in 2.5 mi WSW 4.6 mph - 0.02 in Rain Light Rain
10:51 AM 35.1 °F - 34.0 °F 96% 30.15 in 3.0 mi Calm Calm - 0.03 in Rain Light Rain
11:00 AM 35.1 °F 32.2 °F 34.0 °F 96% 30.13 in 2.5 mi NW 3.5 mph - 0.00 in Rain Light Rain
11:19 AM 35.1 °F - 35.1 °F 100% 30.12 in 1.8 mi Calm Calm - 0.02 in Rain Light Rain
11:51 AM 36.0 °F - 36.0 °F 100% 30.10 in 2.0 mi Calm Calm - 0.04 in Rain Light Rain
11:57 AM 36.0 °F - 36.0 °F 100% 30.08 in 1.8 mi Calm Calm - 0.00 in Rain Light Rain
12:07 PM 36.0 °F - 36.0 °F 100% 30.07 in 1.2 mi Calm Calm - 0.01 in Rain Light Rain
12:09 PM 36.0 °F - 36.0 °F 100% 30.07 in 1.5 mi Calm Calm - 0.01 in Rain Light Rain
12:18 PM 37.0 °F - 36.0 °F 96% 30.07 in 3.0 mi Calm Calm - 0.01 in Rain Light Rain
12:40 PM 37.0 °F 34.5 °F 36.0 °F 96% 30.06 in 2.0 mi WNW 3.5 mph - 0.01 in   Overcast
12:51 PM 37.0 °F - 36.0 °F 96% 30.06 in 2.0 mi Calm Calm - 0.01 in   Overcast
1:27 PM 36.0 °F 33.3 °F 36.0 °F 100% 30.04 in 3.0 mi NNW 3.5 mph - N/A   Overcast
1:40 PM 37.0 °F 34.5 °F 36.0 °F 96% 30.03 in 3.0 mi NW 3.5 mph - N/A   Overcast
1:51 PM 37.0 °F 34.5 °F 37.0 °F 100% 30.04 in 2.5 mi NW 3.5 mph - N/A   Overcast
2:00 PM 37.0 °F - 36.0 °F 96% 30.02 in 1.5 mi Calm Calm - N/A   Overcast
2:47 PM 37.4 °F 33.8 °F 37.4 °F 100% 30.00 in 1.8 mi NNW 4.6 mph - N/A   Overcast
2:51 PM 37.0 °F 34.5 °F 37.0 °F 100% 30.01 in 1.8 mi NNW 3.5 mph - N/A   Overcast
3:51 PM 37.0 °F 34.5 °F 37.0 °F 100% 30.00 in 1.5 mi West 3.5 mph - N/A   Overcast
4:42 PM 37.0 °F 33.3 °F 37.0 °F 100% 29.98 in 1.2 mi WNW 4.6 mph - N/A   Overcast
4:51 PM 37.0 °F 34.5 °F 37.0 °F 100% 30.00 in 1.0 mi WNW 3.5 mph - N/A   Overcast
5:02 PM 37.0 °F 34.5 °F 37.0 °F 100% 29.98 in 0.8 mi West 3.5 mph - N/A   Overcast
5:51 PM 37.0 °F - 37.0 °F 100% 29.95 in 0.2 mi Calm Calm - N/A Fog Fog
6:15 PM 37.0 °F - 37.0 °F 100% 29.93 in 0.2 mi Calm Calm - N/A Fog Fog
6:51 PM 37.0 °F - 37.0 °F 100% 29.92 in 0.2 mi Calm Calm - N/A Fog Fog
7:51 PM 37.0 °F - 36.0 °F 96% 29.91 in 0.2 mi Calm Calm - N/A Fog Fog
8:41 PM 37.0 °F - 36.0 °F 96% 29.87 in 0.2 mi Calm Calm - N/A Fog Fog
8:51 PM 37.0 °F - 37.0 °F 100% 29.88 in 0.2 mi Calm Calm - N/A Fog Fog
9:51 PM 37.0 °F - 37.0 °F 100% 29.86 in 0.2 mi Calm Calm - N/A Fog Fog
10:46 PM 37.4 °F 34.9 °F 37.4 °F 100% 29.82 in 0.5 mi SSE 3.5 mph - N/A Fog Fog
10:51 PM 37.0 °F 34.5 °F 37.0 °F 100% 29.83 in 0.5 mi South 3.5 mph - N/A Fog Fog
11:06 PM 37.9 °F - 37.9 °F 100% 29.81 in 0.8 mi Calm Calm - N/A   Overcast
11:16 PM 37.9 °F - 37.9 °F 100% 29.80 in 1.2 mi Calm Calm - N/A   Overcast
11:42 PM 37.9 °F - 37.9 °F 100% 29.80 in 1.5 mi Calm Calm - N/A   Overcast
11:51 PM 37.9 °F - 37.9 °F 100% 29.81 in 1.2 mi Calm Calm - N/A   Overcast
11:58 PM 37.9 °F - 37.9 °F 100% 29.79 in 1.5 mi Calm Calm - N/A   Overcast